This demonstration page uses our WeatherBlox Daily Observations layout. Learn more.

38.88101, -77.10428

Hourly Observations for June 26, 2016

Temp ( °F °C ) Dew Point ( °F °C ) Humidity (%) Winds ( mph kmh ) Pressure ( in mb ) Visibility ( mi km ) Precip ( " mm )
12:52 am 00:52 Mostly Clear 73 22.8 58 14.4 59 59 S 8 13 30.2 1023 10 16.0934 0 0
1:52 am 01:52 Clear 71 21.7 58 14.4 63 63 SW 3 6 30.2 1023 10 16.0934 0 0
2:52 am 02:52 Mostly Clear 70 21.1 57 13.9 64 64 WSW 5 7 30.21 1023 10 16.0934 0 0
3:52 am 03:52 Clear 71 21.7 56 13.3 59 59 Calm 30.23 1024 10 16.0934 0 0
4:52 am 04:52 Partly Cloudy 69 20.6 59 15 70 70 Calm 30.24 1024 10 16.0934 0 0
5:52 am 05:52 Mostly Cloudy 66 18.9 59 15 78 78 Calm 30.23 1024 10 16.0934 0 0
6:52 am 06:52 Mostly Cloudy 69 20.6 63 17.2 81 81 Calm 30.22 1023 10 16.0934 0 0
7:52 am 07:52 Mostly Cloudy 72 22.2 63 17.2 73 73 Calm 30.22 1023 10 16.0934 0 0
8:52 am 08:52 Mostly Cloudy 75 23.9 64 17.8 69 69 Calm 30.23 1024 10 16.0934 0 0
9:52 am 09:52 Mostly Cloudy 78 25.6 61 16.1 56 56 S 3 6 30.22 1024 10 16.0934 0 0
10:52 am 10:52 Mostly Cloudy 81 27.2 60 15.6 49 49 S 3 6 30.23 1024 10 16.0934 0 0
11:52 am 11:52 Mostly Cloudy 82 27.8 59 15 46 46 SSW 6 9 30.23 1024 10 16.0934 0 0
12:52 pm 12:52 Mostly Cloudy 84 28.9 58 14.4 41 41 Calm 30.22 1024 10 16.0934 0 0
1:52 pm 13:52 Mostly Cloudy 84 28.9 59 15 43 43 SE 10 17 30.22 1023 10 16.0934 0 0
2:52 pm 14:52 Mostly Cloudy 84 28.9 56 13.3 38 38 SE 8 13 30.19 1023 10 16.0934 0 0
3:52 pm 15:52 Mostly Cloudy 85 29.4 52 11.1 32 32 SE 10 17 30.18 1022 10 16.0934 0 0
4:52 pm 16:52 Mostly Cloudy 83 28.3 52 11.1 34 34 SE 10 17 30.17 1022 10 16.0934 0 0
5:52 pm 17:52 Mostly Cloudy 83 28.3 49 9.4 31 31 S 6 9 30.15 1021 10 16.0934 0 0
6:52 pm 18:52 Mostly Cloudy 81 27.2 53 11.7 38 38 SE 9 15 30.14 1021 10 16.0934 0 0
7:52 pm 19:52 Mostly Cloudy 79 26.1 54 12.2 42 42 SSE 10 17 30.13 1020 10 16.0934 0 0
8:52 pm 20:52 Mostly Cloudy 77 25 57 13.9 50 50 S 9 15 30.12 1020 10 16.0934 0 0
9:52 pm 21:52 Mostly Cloudy 74 23.3 59 15 60 60 SSE 7 11 30.13 1020 10 16.0934 0 0
10:52 pm 22:52 Mostly Clear 73 22.8 60 15.6 64 64 SSE 6 9 30.14 1021 10 16.0934 0 0
11:52 pm 23:52 Clear 71 21.7 62 16.7 73 73 S 8 13 30.15 1021 10 16.0934 0 0

Powered by AerisWeather